Year,Month,Day,Hour,Minute,Value (Times are PST for temperature in C)
2008,10,25,00,00,9.50
2008,10,25,00,01,9.50
2008,10,25,00,02,9.50
2008,10,25,00,03,9.50
2008,10,25,00,04,9.50
2008,10,25,00,05,9.50
2008,10,25,00,06,9.50
2008,10,25,00,07,9.50
2008,10,25,00,08,9.50
2008,10,25,00,09,9.50
2008,10,25,00,10,9.60
2008,10,25,00,11,9.60
2008,10,25,00,12,9.50
2008,10,25,01,02,9.70
2008,10,25,01,03,9.70
2008,10,25,01,04,9.70
2008,10,25,01,05,9.70
2008,10,25,01,06,9.70
2008,10,25,01,07,9.70
2008,10,25,01,08,9.70
2008,10,25,01,09,9.70
2008,10,25,01,10,9.70
2008,10,25,01,11,9.70
2008,10,25,01,12,9.70
2008,10,25,01,13,9.70
2008,10,25,01,14,9.70
2008,10,25,01,15,9.70
2008,10,25,01,16,9.70
2008,10,25,01,17,9.70
2008,10,25,01,18,9.70
2008,10,25,01,19,9.70
2008,10,25,01,20,9.70
2008,10,25,01,21,9.70
2008,10,25,01,22,9.70
2008,10,25,01,23,9.70
2008,10,25,01,24,9.70
2008,10,25,01,25,9.70
2008,10,25,01,26,9.70
2008,10,25,01,27,9.70
2008,10,25,01,28,9.70
2008,10,25,01,29,9.70
2008,10,25,01,30,9.70
2008,10,25,01,31,9.70
2008,10,25,01,32,9.70
2008,10,25,01,33,9.70
2008,10,25,01,34,9.70
2008,10,25,01,35,9.70
2008,10,25,01,36,9.70
2008,10,25,01,37,9.70
2008,10,25,01,38,9.60
2008,10,25,01,39,9.60
2008,10,25,01,40,9.60
2008,10,25,01,41,9.60
2008,10,25,01,42,9.60
2008,10,25,01,43,9.60
2008,10,25,01,44,9.60
2008,10,25,01,45,9.60
2008,10,25,01,46,9.60
2008,10,25,01,47,9.60
2008,10,25,01,48,9.60
2008,10,25,01,49,9.60
2008,10,25,01,50,9.60
2008,10,25,01,51,9.60
2008,10,25,01,52,9.60
2008,10,25,01,53,9.50
2008,10,25,01,54,9.50
2008,10,25,01,55,9.50
2008,10,25,01,56,9.50
2008,10,25,01,57,9.50
2008,10,25,01,58,9.50
2008,10,25,01,59,9.50
2008,10,25,02,00,9.50
2008,10,25,02,01,9.50
2008,10,25,02,02,9.50
2008,10,25,02,03,9.50
2008,10,25,02,04,9.50
2008,10,25,02,05,9.50
2008,10,25,02,06,9.50
2008,10,25,02,07,9.50
2008,10,25,02,08,9.50
2008,10,25,02,09,9.50
2008,10,25,02,10,9.50
2008,10,25,02,11,9.50
2008,10,25,02,12,9.50
2008,10,25,02,13,9.50
2008,10,25,02,14,9.50
2008,10,25,02,15,9.50
2008,10,25,02,16,9.50
2008,10,25,02,17,9.50
2008,10,25,02,18,9.50
2008,10,25,02,19,9.50
2008,10,25,02,20,9.50
2008,10,25,02,21,9.50
2008,10,25,02,22,9.50
2008,10,25,02,23,9.50
2008,10,25,02,24,9.50
2008,10,25,02,25,9.50
2008,10,25,02,26,9.50
2008,10,25,02,27,9.50
2008,10,25,02,28,9.50
2008,10,25,02,29,9.50
2008,10,25,02,30,9.50
2008,10,25,02,31,9.50
2008,10,25,02,32,9.50
2008,10,25,02,33,9.50
2008,10,25,02,34,9.50
2008,10,25,02,35,9.50
2008,10,25,02,36,9.50
2008,10,25,02,37,9.50
2008,10,25,02,38,9.50
2008,10,25,02,39,9.50
2008,10,25,02,40,9.50
2008,10,25,02,41,9.40
2008,10,25,02,42,9.40
2008,10,25,02,43,9.40
2008,10,25,02,44,9.40
2008,10,25,02,45,9.40
2008,10,25,02,46,9.40
2008,10,25,02,47,9.40
2008,10,25,02,48,9.40
2008,10,25,02,49,9.40
2008,10,25,02,50,9.40
2008,10,25,02,51,9.40
2008,10,25,02,52,9.30
2008,10,25,02,53,9.30
2008,10,25,02,54,9.30
2008,10,25,02,55,9.30
2008,10,25,02,56,9.30
2008,10,25,02,57,9.30
2008,10,25,02,58,9.30
2008,10,25,02,59,9.30
2008,10,25,03,00,9.30
2008,10,25,03,01,9.30
2008,10,25,03,02,9.30
2008,10,25,03,03,9.30
2008,10,25,03,04,9.20
2008,10,25,03,05,9.20
2008,10,25,03,06,9.20
2008,10,25,03,07,9.20
2008,10,25,03,08,9.20
2008,10,25,03,09,9.20
2008,10,25,03,10,9.20
2008,10,25,03,11,9.20
2008,10,25,03,12,9.20
2008,10,25,03,13,9.20
2008,10,25,03,14,9.20
2008,10,25,03,15,9.20
2008,10,25,03,16,9.20
2008,10,25,03,17,9.20
2008,10,25,03,18,9.20
2008,10,25,03,19,9.20
2008,10,25,03,20,9.20
2008,10,25,03,21,9.20
2008,10,25,03,22,9.20
2008,10,25,03,23,9.20
2008,10,25,03,24,9.20
2008,10,25,03,25,9.20
2008,10,25,03,26,9.20
2008,10,25,03,27,9.20
2008,10,25,03,28,9.20
2008,10,25,03,29,9.20
2008,10,25,03,30,9.20
2008,10,25,03,31,9.20
2008,10,25,03,32,9.20
2008,10,25,03,33,9.20
2008,10,25,03,34,9.20
2008,10,25,03,35,9.20
2008,10,25,03,36,9.20
2008,10,25,03,37,9.20
2008,10,25,03,38,9.20
2008,10,25,03,39,9.20
2008,10,25,03,40,9.20
2008,10,25,03,41,9.20
2008,10,25,03,42,9.20
2008,10,25,03,43,9.20
2008,10,25,03,44,9.20
2008,10,25,03,45,9.20
2008,10,25,03,46,9.20
2008,10,25,03,47,9.20
2008,10,25,03,48,9.20
2008,10,25,03,49,9.20
2008,10,25,03,50,9.20
2008,10,25,03,51,9.20
2008,10,25,03,52,9.20
2008,10,25,03,53,9.20
2008,10,25,03,54,9.20
2008,10,25,03,55,9.20
2008,10,25,03,56,9.20
2008,10,25,03,57,9.20
2008,10,25,03,58,9.10
2008,10,25,03,59,9.10
2008,10,25,04,00,9.10
2008,10,25,04,01,9.10
2008,10,25,04,02,9.10
2008,10,25,04,03,9.10
2008,10,25,04,04,9.10
2008,10,25,04,05,9.10
2008,10,25,04,06,9.10
2008,10,25,04,07,9.10
2008,10,25,04,08,9.10
2008,10,25,04,09,9.10
2008,10,25,04,10,9.10
2008,10,25,04,11,9.10
2008,10,25,04,12,9.10
2008,10,25,04,13,9.10
2008,10,25,04,14,9.10
2008,10,25,04,15,9.10
2008,10,25,04,16,9.10
2008,10,25,04,17,9.10
2008,10,25,04,18,9.10
2008,10,25,04,19,9.00
2008,10,25,04,20,9.00
2008,10,25,04,21,9.00
2008,10,25,04,22,9.00
2008,10,25,04,23,9.00
2008,10,25,04,24,9.00
2008,10,25,04,25,9.00
2008,10,25,04,26,9.00
2008,10,25,04,27,9.00
2008,10,25,04,28,9.00
2008,10,25,04,29,9.00
2008,10,25,04,30,9.00
2008,10,25,04,31,9.00
2008,10,25,04,32,9.00
2008,10,25,04,33,9.00
2008,10,25,04,34,9.00
2008,10,25,04,35,9.00
2008,10,25,04,36,9.00
2008,10,25,04,37,9.00
2008,10,25,04,38,9.00
2008,10,25,04,39,9.00
2008,10,25,04,40,9.00
2008,10,25,04,41,9.00
2008,10,25,04,42,9.00
2008,10,25,04,43,9.00
2008,10,25,04,44,9.00
2008,10,25,04,45,9.00
2008,10,25,04,46,9.00
2008,10,25,04,47,9.00
2008,10,25,04,48,9.00
2008,10,25,04,49,9.00
2008,10,25,04,50,9.00
2008,10,25,04,51,9.00
2008,10,25,04,52,9.00
2008,10,25,04,53,9.00
2008,10,25,04,54,9.00
2008,10,25,04,55,9.00
2008,10,25,04,56,9.00
2008,10,25,04,57,9.00
2008,10,25,04,58,9.00
2008,10,25,04,59,9.00
2008,10,25,05,00,9.00
2008,10,25,05,01,9.00
2008,10,25,05,02,9.00
2008,10,25,05,03,9.00
2008,10,25,05,04,9.00
2008,10,25,05,05,9.00
2008,10,25,05,06,9.00
2008,10,25,05,07,9.00
2008,10,25,05,08,9.00
2008,10,25,05,09,9.00
2008,10,25,05,10,9.00
2008,10,25,05,11,9.00
2008,10,25,05,12,9.00
2008,10,25,05,13,9.00
2008,10,25,05,14,9.00
2008,10,25,05,15,9.00
2008,10,25,05,16,9.00
2008,10,25,05,17,9.00
2008,10,25,05,18,9.00
2008,10,25,05,19,9.00
2008,10,25,05,20,9.10
2008,10,25,05,21,9.10
2008,10,25,05,22,9.10
2008,10,25,05,23,9.10
2008,10,25,05,24,9.10
2008,10,25,05,25,9.10
2008,10,25,05,26,9.10
2008,10,25,05,27,9.10
2008,10,25,05,28,9.10
2008,10,25,05,29,9.10
2008,10,25,05,30,9.10
2008,10,25,05,31,9.10
2008,10,25,05,32,9.10
2008,10,25,05,33,9.10
2008,10,25,05,34,9.10
2008,10,25,05,35,9.10
2008,10,25,05,36,9.10
2008,10,25,05,37,9.10
2008,10,25,05,38,9.10
2008,10,25,05,39,9.10
2008,10,25,05,40,9.10
2008,10,25,05,41,9.10
2008,10,25,05,42,9.10
2008,10,25,05,43,9.10
2008,10,25,05,44,9.10
2008,10,25,05,45,9.10
2008,10,25,05,46,9.10
2008,10,25,05,47,9.10
2008,10,25,05,48,9.10
2008,10,25,05,49,9.10
2008,10,25,05,50,9.10
2008,10,25,05,51,9.10
2008,10,25,05,52,9.10
2008,10,25,05,53,9.10
2008,10,25,05,54,9.10
2008,10,25,05,55,9.10
2008,10,25,05,56,9.10
2008,10,25,05,57,9.10
2008,10,25,05,58,9.10
2008,10,25,05,59,9.10
2008,10,25,06,00,9.10
2008,10,25,06,01,9.00
2008,10,25,06,02,9.00
2008,10,25,06,03,9.00
2008,10,25,06,04,9.00
2008,10,25,06,05,9.00
2008,10,25,06,06,9.00
2008,10,25,06,07,9.00
2008,10,25,06,08,9.00
2008,10,25,06,09,9.00
2008,10,25,06,10,8.90
2008,10,25,06,11,8.90
2008,10,25,06,12,8.90
2008,10,25,06,13,8.90
2008,10,25,06,14,8.90
2008,10,25,06,15,8.90
2008,10,25,06,16,8.90
2008,10,25,06,17,8.90
2008,10,25,06,18,8.80
2008,10,25,06,19,8.80
2008,10,25,06,20,8.80
2008,10,25,06,21,8.80
2008,10,25,06,22,8.80
2008,10,25,06,23,8.70
2008,10,25,06,24,8.70
2008,10,25,06,25,8.70
2008,10,25,06,26,8.70
2008,10,25,06,27,8.70
2008,10,25,06,28,8.70
2008,10,25,06,29,8.70
2008,10,25,06,30,8.70
2008,10,25,06,31,8.70
2008,10,25,06,32,8.70
2008,10,25,06,33,8.70
2008,10,25,06,34,8.70
2008,10,25,06,35,8.70
2008,10,25,06,36,8.60
2008,10,25,06,37,8.60
2008,10,25,06,38,8.60
2008,10,25,06,39,8.60
2008,10,25,06,40,8.60
2008,10,25,06,41,8.50
2008,10,25,06,42,8.50
2008,10,25,06,43,8.50
2008,10,25,06,44,8.50
2008,10,25,06,45,8.40
2008,10,25,06,46,8.40
2008,10,25,06,47,8.40
2008,10,25,06,48,8.40
2008,10,25,06,49,8.30
2008,10,25,06,50,8.30
2008,10,25,06,51,8.30
2008,10,25,06,52,8.20
2008,10,25,06,53,8.20
2008,10,25,06,54,8.20
2008,10,25,06,55,8.20
2008,10,25,06,56,8.20
2008,10,25,06,57,8.10
2008,10,25,06,58,8.10
2008,10,25,06,59,8.10
2008,10,25,07,00,8.10
2008,10,25,07,01,8.00
2008,10,25,07,02,8.00
2008,10,25,07,03,8.00
2008,10,25,07,04,7.90
2008,10,25,07,05,7.90
2008,10,25,07,06,7.90
2008,10,25,07,07,7.80
2008,10,25,07,08,7.80
2008,10,25,07,09,7.80
2008,10,25,07,10,7.80
2008,10,25,07,11,7.80
2008,10,25,07,12,7.70
2008,10,25,07,13,7.70
2008,10,25,07,14,7.70
2008,10,25,07,15,7.70
2008,10,25,07,16,7.60
2008,10,25,07,17,7.60
2008,10,25,07,18,7.60
2008,10,25,07,19,7.60
2008,10,25,07,20,7.50
2008,10,25,07,21,7.50
2008,10,25,07,22,7.50
2008,10,25,07,23,7.40
2008,10,25,07,24,7.40
2008,10,25,07,25,7.30
2008,10,25,07,26,7.30
2008,10,25,07,27,7.30
2008,10,25,07,28,7.30
2008,10,25,07,29,7.30
2008,10,25,07,30,7.30
2008,10,25,07,31,7.20
2008,10,25,07,32,7.20
2008,10,25,07,33,7.20
2008,10,25,07,34,7.20
2008,10,25,07,35,7.10
2008,10,25,07,36,7.10
2008,10,25,07,37,7.10
2008,10,25,07,38,7.10
2008,10,25,07,39,7.10
2008,10,25,07,40,7.00
2008,10,25,07,41,7.00
2008,10,25,07,42,7.00
2008,10,25,07,43,7.00
2008,10,25,07,44,7.00
2008,10,25,07,45,7.00
2008,10,25,07,46,7.00
2008,10,25,07,47,6.90
2008,10,25,07,48,6.90
2008,10,25,07,49,6.90
2008,10,25,07,50,6.90
2008,10,25,07,51,6.90
2008,10,25,07,52,6.90
2008,10,25,07,53,6.90
2008,10,25,07,54,6.90
2008,10,25,07,55,6.90
2008,10,25,07,56,6.90
2008,10,25,07,57,6.90
2008,10,25,07,58,6.90
2008,10,25,07,59,6.90
2008,10,25,08,00,6.90
2008,10,25,08,01,6.90
2008,10,25,08,02,6.90
2008,10,25,08,03,6.90
2008,10,25,08,04,6.90
2008,10,25,08,05,7.00
2008,10,25,08,06,7.00
2008,10,25,08,07,7.00
2008,10,25,08,08,7.00
2008,10,25,08,09,7.10
2008,10,25,08,10,7.10
2008,10,25,08,11,7.10
2008,10,25,08,12,7.10
2008,10,25,08,13,7.20
2008,10,25,08,14,7.10
2008,10,25,08,15,7.10
2008,10,25,08,16,7.10
2008,10,25,08,17,7.10
2008,10,25,08,18,7.10
2008,10,25,08,19,7.10
2008,10,25,08,20,7.10
2008,10,25,08,21,7.10
2008,10,25,08,22,7.10
2008,10,25,08,23,7.10
2008,10,25,08,24,7.10
2008,10,25,08,25,7.00
2008,10,25,08,26,7.00
2008,10,25,08,27,7.00
2008,10,25,08,28,7.00
2008,10,25,08,29,7.00
2008,10,25,08,30,7.00
2008,10,25,08,31,7.00
2008,10,25,08,32,7.00
2008,10,25,08,33,7.00
2008,10,25,08,34,7.00
2008,10,25,08,35,7.00
2008,10,25,08,36,7.00
2008,10,25,08,37,7.00
2008,10,25,08,38,7.00
2008,10,25,08,39,7.00
2008,10,25,08,40,6.90
2008,10,25,08,41,6.90
2008,10,25,08,42,6.90
2008,10,25,08,43,6.90
2008,10,25,08,44,6.90
2008,10,25,08,45,6.90
2008,10,25,08,46,6.90
2008,10,25,08,47,6.90
2008,10,25,08,48,6.90
2008,10,25,08,49,7.00
2008,10,25,08,50,7.00
2008,10,25,08,51,7.00
2008,10,25,08,52,7.00
2008,10,25,08,53,7.00
2008,10,25,08,54,7.10
2008,10,25,08,55,7.20
2008,10,25,08,56,7.30
2008,10,25,08,57,7.30
2008,10,25,08,58,7.30
2008,10,25,08,59,7.30
2008,10,25,09,00,7.40
2008,10,25,09,01,7.40
2008,10,25,09,02,7.40
2008,10,25,09,03,7.50
2008,10,25,09,04,7.50
2008,10,25,09,05,7.60
2008,10,25,09,06,7.70
2008,10,25,09,07,7.80
2008,10,25,09,08,7.90
2008,10,25,09,09,8.00
2008,10,25,09,10,8.00
2008,10,25,09,11,8.10
2008,10,25,09,12,8.20
2008,10,25,09,13,8.20
2008,10,25,09,14,8.30
2008,10,25,09,15,8.40
2008,10,25,09,16,8.50
2008,10,25,09,17,8.60
2008,10,25,09,18,8.70
2008,10,25,09,19,8.80
2008,10,25,09,20,8.90
2008,10,25,09,21,9.00
2008,10,25,09,22,9.10
2008,10,25,09,23,9.20
2008,10,25,09,24,9.40
2008,10,25,09,25,9.50
2008,10,25,09,26,9.50
2008,10,25,09,27,9.70
2008,10,25,09,28,9.70
2008,10,25,09,29,9.80
2008,10,25,09,30,9.90
2008,10,25,09,31,10.00
2008,10,25,09,32,10.10
2008,10,25,09,33,10.10
2008,10,25,09,34,10.10
2008,10,25,09,35,10.10
2008,10,25,09,36,10.10
2008,10,25,09,37,10.10
2008,10,25,09,38,10.10
2008,10,25,09,39,10.00
2008,10,25,09,40,9.90
2008,10,25,09,41,9.90
2008,10,25,09,42,10.00
2008,10,25,09,43,10.10
2008,10,25,09,44,10.10
2008,10,25,09,45,10.10
2008,10,25,09,46,10.10
2008,10,25,09,47,10.20
2008,10,25,09,48,10.20
2008,10,25,09,49,10.20
2008,10,25,09,50,10.30
2008,10,25,09,51,10.40
2008,10,25,09,52,10.40
2008,10,25,09,53,10.40
2008,10,25,09,54,10.50
2008,10,25,09,55,10.50
2008,10,25,09,56,10.60
2008,10,25,09,57,10.60
2008,10,25,09,58,10.60
2008,10,25,09,59,10.60
2008,10,25,10,00,10.60
2008,10,25,10,01,10.70
2008,10,25,10,02,10.70
2008,10,25,10,03,10.70
2008,10,25,10,04,10.70
2008,10,25,10,05,10.70
2008,10,25,10,06,10.70
2008,10,25,10,07,10.70
2008,10,25,10,08,10.70
2008,10,25,10,09,10.70
2008,10,25,10,10,10.80
2008,10,25,10,11,10.80
2008,10,25,10,12,10.90
2008,10,25,10,13,10.90
2008,10,25,10,14,10.90
2008,10,25,10,15,10.90
2008,10,25,10,16,10.90
2008,10,25,10,17,10.90
2008,10,25,10,18,10.90
2008,10,25,10,19,10.90
2008,10,25,10,20,10.90
2008,10,25,10,21,10.90
2008,10,25,10,22,10.90
2008,10,25,10,23,10.90
2008,10,25,10,24,10.90
2008,10,25,10,25,10.90
2008,10,25,10,26,10.90
2008,10,25,10,27,10.90
2008,10,25,10,28,10.90
2008,10,25,10,29,10.80
2008,10,25,10,30,10.80
2008,10,25,10,31,10.80
2008,10,25,10,32,10.70
2008,10,25,10,33,10.70
2008,10,25,10,34,10.70
2008,10,25,10,35,10.60
2008,10,25,10,36,10.60
2008,10,25,10,37,10.60
2008,10,25,10,38,10.50
2008,10,25,10,39,10.40
2008,10,25,10,40,10.40
2008,10,25,10,41,10.40
2008,10,25,10,42,10.40
2008,10,25,10,43,10.40
2008,10,25,10,44,10.30
2008,10,25,10,45,10.30
2008,10,25,10,46,10.30
2008,10,25,10,47,10.30
2008,10,25,10,48,10.30
2008,10,25,10,49,10.20
2008,10,25,10,50,10.20
2008,10,25,10,51,10.30
2008,10,25,10,52,10.40
2008,10,25,10,53,10.40
2008,10,25,10,54,10.40
2008,10,25,10,55,10.60
2008,10,25,10,56,10.60
2008,10,25,10,57,10.60
2008,10,25,10,58,10.70
2008,10,25,10,59,10.80
2008,10,25,11,00,10.90
2008,10,25,11,01,10.90
2008,10,25,11,02,10.90
2008,10,25,11,03,11.10
2008,10,25,11,04,11.10
2008,10,25,11,05,11.20
2008,10,25,11,06,11.20
2008,10,25,11,07,11.10
2008,10,25,11,08,11.20
2008,10,25,11,09,11.20
2008,10,25,11,10,11.20
2008,10,25,11,11,11.10
2008,10,25,11,12,11.10
2008,10,25,11,13,11.10
2008,10,25,11,14,11.10
2008,10,25,11,15,11.10
2008,10,25,11,16,11.00
2008,10,25,11,17,10.90
2008,10,25,11,18,10.90
2008,10,25,11,19,10.90
2008,10,25,11,20,10.90
2008,10,25,11,21,10.90
2008,10,25,11,22,10.90
2008,10,25,11,23,10.90
2008,10,25,11,24,10.90
2008,10,25,11,25,10.90
2008,10,25,11,26,10.90
2008,10,25,11,27,10.90
2008,10,25,11,28,11.10
2008,10,25,11,29,11.10
2008,10,25,11,30,11.10
2008,10,25,11,31,11.10
2008,10,25,11,32,11.10
2008,10,25,11,33,11.10
2008,10,25,11,34,11.10
2008,10,25,11,35,11.10
2008,10,25,11,36,11.10
2008,10,25,11,37,11.10
2008,10,25,11,38,11.10
2008,10,25,11,39,11.10
2008,10,25,11,40,11.10
2008,10,25,11,41,11.00
2008,10,25,11,42,11.00
2008,10,25,11,43,11.10
2008,10,25,11,44,11.10
2008,10,25,11,45,11.10
2008,10,25,11,46,11.10
2008,10,25,11,47,11.10
2008,10,25,11,48,11.10
2008,10,25,11,49,11.10
2008,10,25,11,50,11.10
2008,10,25,11,51,11.10
2008,10,25,11,52,11.10
2008,10,25,11,53,11.10
2008,10,25,11,54,11.10
2008,10,25,11,55,11.10
2008,10,25,11,56,11.20
2008,10,25,11,57,11.20
2008,10,25,11,58,11.20
2008,10,25,11,59,11.30
2008,10,25,12,00,11.40
2008,10,25,12,01,11.40
2008,10,25,12,02,11.40
2008,10,25,12,03,11.40
2008,10,25,12,04,11.40
2008,10,25,12,05,11.40
2008,10,25,12,06,11.40
2008,10,25,12,07,11.40
2008,10,25,12,08,11.40
2008,10,25,12,09,11.40
2008,10,25,12,10,11.40
2008,10,25,12,11,11.50
2008,10,25,12,12,11.60
2008,10,25,12,13,11.60
2008,10,25,12,14,11.60
2008,10,25,12,15,11.60
2008,10,25,12,16,11.60
2008,10,25,12,17,11.60
2008,10,25,12,18,11.60
2008,10,25,12,19,11.70
2008,10,25,12,20,11.80
2008,10,25,12,21,11.80
2008,10,25,12,22,11.80
2008,10,25,12,23,11.80
2008,10,25,12,24,11.80
2008,10,25,12,25,11.80
2008,10,25,12,26,11.80
2008,10,25,12,27,11.80
2008,10,25,12,28,11.80
2008,10,25,12,29,11.80
2008,10,25,12,30,11.80
2008,10,25,12,31,11.80
2008,10,25,12,32,11.80
2008,10,25,12,33,11.90
2008,10,25,12,34,12.00
2008,10,25,12,35,12.00
2008,10,25,12,36,12.00
2008,10,25,12,37,12.00
2008,10,25,12,38,12.00
2008,10,25,12,39,12.00
2008,10,25,12,40,11.90
2008,10,25,12,41,11.90
2008,10,25,12,42,11.90
2008,10,25,12,43,11.90
2008,10,25,12,44,11.90
2008,10,25,12,45,11.80
2008,10,25,12,46,11.80
2008,10,25,12,47,11.80
2008,10,25,12,48,11.80
2008,10,25,12,49,11.80
2008,10,25,12,50,11.80
2008,10,25,12,51,11.80
2008,10,25,12,52,11.90
2008,10,25,12,53,11.90
2008,10,25,12,54,12.00
2008,10,25,12,55,12.00
2008,10,25,12,56,12.00
2008,10,25,12,57,12.00
2008,10,25,12,58,12.00
2008,10,25,12,59,12.00
2008,10,25,13,00,11.90
2008,10,25,13,01,11.80
2008,10,25,13,02,11.70
2008,10,25,13,03,11.70
2008,10,25,13,04,11.70
2008,10,25,13,05,11.70
2008,10,25,13,06,11.70
2008,10,25,13,07,11.70
2008,10,25,13,08,11.70
2008,10,25,13,09,11.80
2008,10,25,13,10,11.80
2008,10,25,13,11,11.80
2008,10,25,13,12,11.80
2008,10,25,13,13,11.80
2008,10,25,13,14,11.90
2008,10,25,13,15,11.90
2008,10,25,13,16,12.00
2008,10,25,13,17,12.00
2008,10,25,13,18,12.00
2008,10,25,13,19,12.00
2008,10,25,13,20,12.10
2008,10,25,13,21,12.20
2008,10,25,13,22,12.20
2008,10,25,13,23,12.20
2008,10,25,13,24,12.20
2008,10,25,13,25,12.10
2008,10,25,13,26,12.00
2008,10,25,13,27,12.00
2008,10,25,13,28,11.90
2008,10,25,13,29,11.90
2008,10,25,13,30,11.80
2008,10,25,13,31,11.80
2008,10,25,13,32,11.80
2008,10,25,13,33,11.80
2008,10,25,13,34,11.80
2008,10,25,13,35,11.80
2008,10,25,13,36,11.80
2008,10,25,13,37,11.80
2008,10,25,13,38,11.70
2008,10,25,13,39,11.70
2008,10,25,13,40,11.80
2008,10,25,13,41,11.80
2008,10,25,13,42,11.80
2008,10,25,13,43,11.90
2008,10,25,13,44,12.00
2008,10,25,13,45,12.00
2008,10,25,13,46,12.00
2008,10,25,13,47,12.00
2008,10,25,13,48,12.00
2008,10,25,13,49,12.00
2008,10,25,13,50,11.90
2008,10,25,13,51,11.90
2008,10,25,13,52,11.90
2008,10,25,13,53,11.90
2008,10,25,13,54,12.00
2008,10,25,13,55,12.00
2008,10,25,13,56,12.10
2008,10,25,13,57,12.20
2008,10,25,13,58,12.20
2008,10,25,13,59,12.30
2008,10,25,14,00,12.30
2008,10,25,14,01,12.30
2008,10,25,14,02,12.30
2008,10,25,14,03,12.30
2008,10,25,14,04,12.20
2008,10,25,14,05,12.20
2008,10,25,14,06,12.10
2008,10,25,14,07,12.20
2008,10,25,14,08,12.20
2008,10,25,14,09,12.20
2008,10,25,14,10,12.20
2008,10,25,14,11,12.20
2008,10,25,14,12,12.20
2008,10,25,14,13,12.20
2008,10,25,14,14,12.20
2008,10,25,14,15,12.20
2008,10,25,14,16,12.20
2008,10,25,14,17,12.20
2008,10,25,14,18,12.20
2008,10,25,14,19,12.20
2008,10,25,14,20,12.20
2008,10,25,14,21,12.20
2008,10,25,14,22,12.20
2008,10,25,14,23,12.10
2008,10,25,14,24,12.10
2008,10,25,14,25,12.00
2008,10,25,14,26,12.00
2008,10,25,14,27,12.00
2008,10,25,14,28,11.90
2008,10,25,14,29,11.90
2008,10,25,14,30,11.90
2008,10,25,14,31,11.90
2008,10,25,14,32,11.90
2008,10,25,14,33,11.90
2008,10,25,14,34,12.00
2008,10,25,14,35,12.00
2008,10,25,14,36,12.00
2008,10,25,14,37,12.10
2008,10,25,14,38,12.10
2008,10,25,14,39,12.20
2008,10,25,14,40,12.30
2008,10,25,14,41,12.40
2008,10,25,14,42,12.60
2008,10,25,14,43,12.60
2008,10,25,14,44,12.60
2008,10,25,14,45,12.60
2008,10,25,14,46,12.50
2008,10,25,14,47,12.40
2008,10,25,14,48,12.30
2008,10,25,14,49,12.30
2008,10,25,14,50,12.20
2008,10,25,14,51,12.10
2008,10,25,14,52,12.10
2008,10,25,14,53,12.10
2008,10,25,14,54,12.00
2008,10,25,14,55,12.00
2008,10,25,14,56,12.00
2008,10,25,14,57,12.00
2008,10,25,14,58,12.00
2008,10,25,14,59,12.00
2008,10,25,15,00,12.00
2008,10,25,15,01,12.00
2008,10,25,15,02,12.00
2008,10,25,15,03,12.10
2008,10,25,15,04,12.10
2008,10,25,15,05,12.10
2008,10,25,15,06,12.00
2008,10,25,15,07,12.00
2008,10,25,15,08,12.00
2008,10,25,15,09,12.10
2008,10,25,15,10,12.10
2008,10,25,15,11,12.10
2008,10,25,15,12,12.00
2008,10,25,15,13,11.90
2008,10,25,15,14,11.90
2008,10,25,15,15,11.90
2008,10,25,15,16,11.90
2008,10,25,15,17,11.90
2008,10,25,15,18,11.90
2008,10,25,15,19,11.90
2008,10,25,15,20,11.90
2008,10,25,15,21,11.90
2008,10,25,15,22,11.90
2008,10,25,15,23,12.00
2008,10,25,15,24,12.00
2008,10,25,15,25,12.00
2008,10,25,15,26,12.00
2008,10,25,15,27,12.00
2008,10,25,15,28,12.00
2008,10,25,15,29,12.00
2008,10,25,15,30,12.00
2008,10,25,15,31,12.00
2008,10,25,15,32,12.00
2008,10,25,15,33,12.00
2008,10,25,15,34,12.00
2008,10,25,15,35,12.00
2008,10,25,15,36,12.00
2008,10,25,15,37,11.90
2008,10,25,15,38,11.90
2008,10,25,15,39,11.90
2008,10,25,15,40,11.90
2008,10,25,15,41,11.90
2008,10,25,15,42,11.90
2008,10,25,15,43,11.90
2008,10,25,15,44,11.90
2008,10,25,15,45,11.90
2008,10,25,15,46,11.90
2008,10,25,15,47,11.90
2008,10,25,15,48,11.80
2008,10,25,15,49,11.80
2008,10,25,15,50,11.80
2008,10,25,15,51,11.80
2008,10,25,15,52,11.80
2008,10,25,15,53,11.80
2008,10,25,15,54,11.80
2008,10,25,15,55,11.80
2008,10,25,15,56,11.80
2008,10,25,15,57,11.80
2008,10,25,15,58,11.80
2008,10,25,15,59,11.80
2008,10,25,16,00,11.80
2008,10,25,16,01,11.70
2008,10,25,16,02,11.70
2008,10,25,16,03,11.70
2008,10,25,16,04,11.70
2008,10,25,16,05,11.70
2008,10,25,16,06,11.60
2008,10,25,16,07,11.60
2008,10,25,16,08,11.60
2008,10,25,16,09,11.60
2008,10,25,16,10,11.60
2008,10,25,16,11,11.60
2008,10,25,16,12,11.50
2008,10,25,16,13,11.40
2008,10,25,16,14,11.40
2008,10,25,16,15,11.40
2008,10,25,16,16,11.40
2008,10,25,16,17,11.40
2008,10,25,16,18,11.40
2008,10,25,16,19,11.40
2008,10,25,16,20,11.30
2008,10,25,16,21,11.30
2008,10,25,16,22,11.30
2008,10,25,16,23,11.30
2008,10,25,16,24,11.30
2008,10,25,16,25,11.30
2008,10,25,16,26,11.30
2008,10,25,16,27,11.30
2008,10,25,16,28,11.20
2008,10,25,16,29,11.20
2008,10,25,16,30,11.20
2008,10,25,16,31,11.10
2008,10,25,16,32,11.10
2008,10,25,16,33,11.10
2008,10,25,16,34,11.00
2008,10,25,16,35,10.90
2008,10,25,16,36,10.90
2008,10,25,16,37,10.90
2008,10,25,16,38,10.90
2008,10,25,16,39,10.80
2008,10,25,16,40,10.80
2008,10,25,16,41,10.80
2008,10,25,16,42,10.70
2008,10,25,16,43,10.70
2008,10,25,16,44,10.70
2008,10,25,16,45,10.60
2008,10,25,16,46,10.60
2008,10,25,16,47,10.60
2008,10,25,16,48,10.60
2008,10,25,16,49,10.60
2008,10,25,16,50,10.60
2008,10,25,16,51,10.60
2008,10,25,16,52,10.60
2008,10,25,16,53,10.60
2008,10,25,16,54,10.60
2008,10,25,16,55,10.60
2008,10,25,16,56,10.50
2008,10,25,16,57,10.40
2008,10,25,16,58,10.40
2008,10,25,16,59,10.40
2008,10,25,17,00,10.40
2008,10,25,17,01,10.40
2008,10,25,17,02,10.30
2008,10,25,17,03,10.30
2008,10,25,17,04,10.30
2008,10,25,17,05,10.30
2008,10,25,17,06,10.30
2008,10,25,17,07,10.20
2008,10,25,17,08,10.20
2008,10,25,17,09,10.20
2008,10,25,17,10,10.20
2008,10,25,17,11,10.10
2008,10,25,17,12,10.10
2008,10,25,17,13,10.10
2008,10,25,17,14,10.10
2008,10,25,17,15,10.00
2008,10,25,17,16,9.90
2008,10,25,17,17,9.90
2008,10,25,17,18,9.90
2008,10,25,17,19,9.90
2008,10,25,17,20,9.90
2008,10,25,17,21,9.90
2008,10,25,17,22,9.90
2008,10,25,17,23,9.90
2008,10,25,17,24,9.80
2008,10,25,17,25,9.80
2008,10,25,17,26,9.70
2008,10,25,17,27,9.70
2008,10,25,17,28,9.70
2008,10,25,17,29,9.70
2008,10,25,17,30,9.70
2008,10,25,17,31,9.60
2008,10,25,17,32,9.60
2008,10,25,17,33,9.60
2008,10,25,17,34,9.50
2008,10,25,17,35,9.50
2008,10,25,17,36,9.40
2008,10,25,17,37,9.40
2008,10,25,17,38,9.30
2008,10,25,17,39,9.30
2008,10,25,17,40,9.30
2008,10,25,17,41,9.20
2008,10,25,17,42,9.20
2008,10,25,17,43,9.20
2008,10,25,17,44,9.20
2008,10,25,17,45,9.20
2008,10,25,17,46,9.10
2008,10,25,17,47,9.10
2008,10,25,17,48,9.10
2008,10,25,17,49,9.10
2008,10,25,17,50,9.00
2008,10,25,17,51,9.00
2008,10,25,17,52,9.00
2008,10,25,17,53,9.00
2008,10,25,17,54,9.00
2008,10,25,17,55,9.00
2008,10,25,17,56,9.00
2008,10,25,17,57,8.90
2008,10,25,17,58,8.90
2008,10,25,17,59,8.90
2008,10,25,18,00,8.90
2008,10,25,18,01,8.80
2008,10,25,18,02,8.80
2008,10,25,18,03,8.80
2008,10,25,18,04,8.70
2008,10,25,18,05,8.70
2008,10,25,18,06,8.70
2008,10,25,18,07,8.70
2008,10,25,18,08,8.70
2008,10,25,18,09,8.70
2008,10,25,18,10,8.70
2008,10,25,18,11,8.60
2008,10,25,18,12,8.60
2008,10,25,18,13,8.60
2008,10,25,18,14,8.60
2008,10,25,18,15,8.50
2008,10,25,18,16,8.50
2008,10,25,18,17,8.50
2008,10,25,18,18,8.50
2008,10,25,18,19,8.40
2008,10,25,18,20,8.40
2008,10,25,18,21,8.40
2008,10,25,18,22,8.40
2008,10,25,18,23,8.30
2008,10,25,18,24,8.30
2008,10,25,18,25,8.30
2008,10,25,18,26,8.30
2008,10,25,18,27,8.30
2008,10,25,18,28,8.20
2008,10,25,18,29,8.20
2008,10,25,18,30,8.20
2008,10,25,18,31,8.20
2008,10,25,18,32,8.20
2008,10,25,18,33,8.20
2008,10,25,18,34,8.20